{"data":{"norad_id":66068,"intl_designator":"2025-235L","name":"STARLINK-35422","alt_names":[],"object_type":"PAYLOAD","status":"ACTIVE","operator":null,"country":"US","launch_date":"2025-10-19","launch_site_code":"AFETR","launch_vehicle":null,"mission":null,"orbit_class":"UNKNOWN","rcs_meters":null,"size_class":null,"mass_kg":null,"dimensions":null,"purposes":["comms"],"wikipedia_slug":null,"has_3d_model":false,"image_url":null,"decayed_at":null,"tle_current":{"epoch":"2026-05-24T23:38:43.922112Z","epoch_age_seconds":75762,"freshness":"FRESH","line1":"1 66068U 25235L   26144.98523058  .00022925  00000+0  78322-3 0  9994","line2":"2 66068  53.1573 250.8117 0001209  54.3486 305.7627 15.30222259 34578","mean_motion":15.30222259,"eccentricity":0.0001209,"inclination_deg":53.1573,"raan_deg":250.8117,"arg_perigee_deg":54.3486,"mean_anomaly_deg":305.7627,"bstar":0.00078322,"rev_number":3457,"period_min":94.103976826284,"perigee_km":474.32004663306,"apogee_km":475.97717109328,"semimajor_km":6853.2856088632,"source":"CELESTRAK","updated_at":"2026-05-25T13:38:21.022148Z"}}}